PBO Station Position Time Series. Reference Frame : NAM14
Format Version,1.1.0
4-character ID,P302
Station name,PanocheCrkCN2004
Begin Date, 2004-12-17
End Date, 2019-10-07
Release Date, 2019-10-08
Reference position, 36.6347275075 North Latitude, -120.6185761955 East Longitude, 122.65793 meters elevation,
Date, North (mm), East (mm), Vertical (mm), North Std. Deviation (mm), East Std. Deviation (mm),              Vertical Std. Deviation (mm), Quality,
2004-12-17,0.00, 0.00, 0.00, 1.95, 1.66, 7.24, repro,
2004-12-18,0.00, -0.25, -0.98, 2.01, 1.72, 7.52, repro,
2004-12-19,0.12, -1.14, 2.22, 1.96, 1.65, 7.27, repro,
2004-12-20,1.23, -1.09, 11.59, 1.96, 1.65, 7.29, repro,
2004-12-21,0.17, -0.57, 7.46, 1.98, 1.66, 7.48, repro,
2004-12-22,0.05, -0.89, 0.35, 1.98, 1.65, 7.49, repro,
2004-12-23,0.16, -0.35, -2.70, 1.91, 1.62, 7.09, repro,
2004-12-24,0.39, -0.51, 1.47, 1.93, 1.66, 7.23, repro,
2004-12-25,0.07, -0.99, 11.46, 1.93, 1.66, 7.23, repro,
2004-12-26,0.36, -1.57, 10.93, 2.05, 1.71, 7.64, repro,
2004-12-27,3.93, -2.36, 19.70, 2.03, 1.65, 7.49, repro,
2004-12-28,3.20, -2.68, 18.73, 2.08, 1.67, 7.56, repro,
2004-12-29,0.00, -1.13, 4.62, 2.04, 1.68, 7.52, repro,
2004-12-30,0.77, -2.65, 18.33, 2.12, 1.71, 7.69, repro,
2004-12-31,2.80, 1.41, 18.45, 2.18, 1.84, 8.04, repro,
2005-01-01,0.33, -0.47, 7.79, 2.03, 1.67, 7.59, repro,
2005-01-02,-1.72, -1.36, 10.03, 2.10, 1.68, 7.66, repro,
2005-01-03,-0.18, -0.87, 1.95, 2.09, 1.69, 7.67, repro,
2005-01-04,-2.05, -1.58, 8.90, 2.09, 1.69, 7.68, repro,
2005-01-05,0.15, -0.24, 3.20, 2.04, 1.67, 7.61, repro,
2005-01-06,0.59, -0.69, 7.39, 2.07, 1.72, 7.73, repro,
2005-01-07,-0.37, 0.76, 13.74, 2.07, 1.70, 7.77, repro,
2005-01-08,-0.83, -2.01, 3.92, 2.05, 1.72, 7.73, repro,
2005-01-09,-0.42, -0.14, 3.76, 1.99, 1.65, 7.44, repro,
2005-01-10,-1.17, -0.79, -0.01, 2.10, 1.82, 8.06, repro,
2005-01-11,1.31, 1.03, 1.84, 2.04, 1.72, 7.60, repro,
2005-01-12,1.40, -0.55, 4.18, 2.05, 1.74, 7.71, repro,
2005-01-13,0.39, 0.38, -2.06, 2.11, 1.80, 8.06, repro,
2005-01-14,1.15, -0.23, -2.25, 2.12, 1.82, 7.88, repro,
2005-01-15,-0.20, -0.55, -7.70, 2.15, 1.93, 8.09, repro,
2005-01-16,0.25, -1.06, -3.68, 2.12, 1.79, 7.78, repro,
2005-01-17,0.37, -1.06, -7.54, 1.97, 1.64, 7.38, repro,
2005-01-18,1.54, -0.42, -2.34, 2.06, 1.75, 7.69, repro,
2005-01-19,1.52, -0.38, -2.16, 2.08, 1.70, 7.66, repro,
2005-01-20,-0.34, -0.09, 1.00, 2.04, 1.71, 7.78, repro,
2005-01-21,0.05, -0.45, 4.73, 2.06, 1.76, 7.82, repro,
2005-01-22,-0.06, -0.52, 5.21, 2.01, 1.72, 7.56, repro,
2005-01-23,1.24, -0.96, 1.29, 1.97, 1.65, 7.38, repro,
2005-01-24,1.02, -1.05, 6.51, 2.01, 1.69, 7.57, repro,
2005-01-25,0.62, 1.17, 3.92, 2.06, 1.77, 7.89, repro,
2005-01-26,2.00, -1.36, -2.14, 1.99, 1.67, 7.51, repro,
2005-01-27,0.29, -2.65, 2.64, 1.98, 1.65, 7.38, repro,
2005-01-28,1.40, -0.35, 5.10, 2.01, 1.73, 7.61, repro,
2005-01-29,1.21, -1.85, -1.74, 1.97, 1.63, 7.31, repro,
2005-01-30,1.73, -1.41, 0.10, 1.99, 1.67, 7.38, repro,
2005-01-31,1.41, -0.68, -2.43, 1.98, 1.67, 7.43, repro,
2005-02-01,0.52, -1.17, 3.63, 1.97, 1.63, 7.31, repro,
2005-02-02,1.50, -0.77, -1.91, 1.97, 1.62, 7.30, repro,
2005-02-03,1.72, -0.68, 1.38, 2.02, 1.64, 7.42, repro,
2005-02-04,1.51, -0.82, -2.48, 1.97, 1.61, 7.26, repro,
2005-02-05,1.90, -1.77, 4.90, 1.96, 1.61, 7.21, repro,
2005-02-06,0.95, -1.44, 3.91, 1.97, 1.61, 7.26, repro,
2005-02-07,0.42, -0.42, 1.27, 1.98, 1.62, 7.30, repro,
2005-02-08,0.84, -0.71, -1.86, 1.99, 1.66, 7.40, repro,
2005-02-09,1.39, -0.57, 2.47, 1.99, 1.66, 7.38, repro,
2005-02-10,0.75, -1.12, 5.54, 1.97, 1.61, 7.20, repro,
2005-02-11,1.18, -0.41, 7.64, 1.97, 1.60, 7.22, repro,
2005-02-12,1.52, -1.32, 2.72, 1.98, 1.61, 7.28, repro,
2005-02-13,0.93, -1.42, 5.95, 1.98, 1.63, 7.30, repro,
2005-02-14,0.95, -2.01, 9.05, 1.99, 1.63, 7.33, repro,
2005-02-15,1.35, 0.32, 2.91, 1.98, 1.62, 7.31, repro,
2005-02-16,1.05, 1.59, -7.23, 1.98, 1.63, 7.36, repro,
2005-02-17,2.76, -0.85, 2.74, 2.06, 1.64, 7.49, repro,
2005-02-18,0.73, -0.52, 8.88, 2.00, 1.64, 7.40, repro,
2005-02-19,0.46, -1.96, 4.13, 2.01, 1.64, 7.40, repro,
2005-02-20,0.07, 0.38, 2.85, 1.98, 1.62, 7.30, repro,
2005-02-21,3.28, -1.00, 13.57, 2.04, 1.67, 7.53, repro,
2005-02-22,1.07, 0.38, 0.95, 1.99, 1.63, 7.33, repro,
2005-02-23,0.48, -0.94, 2.51, 2.03, 1.64, 7.38, repro,
2005-02-24,-0.11, -1.69, 0.06, 2.05, 1.63, 7.42, repro,
2005-02-25,-0.09, -1.37, 3.94, 2.04, 1.63, 7.40, repro,
2005-02-26,-0.61, -0.77, 3.57, 2.03, 1.62, 7.35, repro,
2005-02-27,0.23, -0.76, -2.41, 2.04, 1.63, 7.40, repro,
2005-02-28,0.54, -1.46, 5.05, 2.04, 1.64, 7.43, repro,
2005-03-01,0.30, -0.49, 2.55, 2.04, 1.63, 7.40, repro,
2005-03-02,-0.14, -0.99, 1.79, 2.06, 1.63, 7.45, repro,
2005-03-03,0.93, -0.09, -0.66, 2.02, 1.62, 7.33, repro,
2005-03-04,0.79, -1.33, 3.39, 2.08, 1.64, 7.50, repro,
2005-03-05,1.55, -0.72, -1.33, 2.04, 1.63, 7.44, repro,
2005-03-06,0.75, 0.13, -0.45, 2.05, 1.63, 7.40, repro,
2005-03-07,1.07, 1.06, -2.22, 2.05, 1.64, 7.44, repro,
2005-03-08,-0.07, 0.06, -0.47, 2.04, 1.62, 7.36, repro,
2005-03-09,0.84, -0.62, -5.25, 2.06, 1.65, 7.48, repro,
2005-03-10,1.50, -0.55, 0.03, 2.04, 1.62, 7.38, repro,
2005-03-11,1.41, -0.27, 8.23, 2.05, 1.64, 7.44, repro,
2005-03-12,0.38, -0.76, 4.72, 2.04, 1.63, 7.42, repro,
2005-03-13,-0.20, -1.05, -2.24, 2.04, 1.62, 7.37, repro,
2005-03-14,-0.33, -1.60, 6.50, 2.04, 1.61, 7.32, repro,
2005-03-15,0.29, -0.86, 3.20, 2.07, 1.65, 7.56, repro,
2005-03-16,0.54, -1.53, 5.04, 2.08, 1.67, 7.61, repro,
2005-03-17,-1.15, -0.97, 10.46, 2.07, 1.64, 7.53, repro,
2005-03-18,0.42, -0.31, 6.77, 2.05, 1.62, 7.46, repro,
2005-03-19,-0.44, -1.63, -1.60, 2.05, 1.63, 7.39, repro,
2005-03-20,-0.41, 0.04, 8.53, 2.05, 1.62, 7.40, repro,
2005-03-21,0.61, -0.94, 3.96, 2.06, 1.64, 7.55, repro,
2005-03-22,2.28, 0.39, 5.00, 2.07, 1.64, 7.58, repro,
2005-03-23,-1.47, 0.10, 13.12, 2.05, 1.64, 7.49, repro,
2005-03-24,-0.03, -1.62, 11.23, 2.04, 1.60, 7.32, repro,
2005-03-25,0.15, -1.65, 5.28, 2.04, 1.62, 7.37, repro,
2005-03-26,0.16, -1.02, 8.08, 2.04, 1.62, 7.41, repro,
2005-03-27,0.89, -1.19, 6.50, 2.06, 1.63, 7.48, repro,
2005-03-28,1.35, -2.34, 5.71, 2.07, 1.64, 7.50, repro,
2005-03-29,-1.07, -2.25, 12.77, 2.07, 1.67, 7.51, repro,
2005-03-30,0.48, -1.54, 9.57, 2.05, 1.63, 7.42, repro,
2005-03-31,0.93, -1.10, 4.89, 2.10, 1.64, 7.62, repro,
2005-04-01,0.51, -1.78, 4.46, 2.05, 1.62, 7.44, repro,
2005-04-02,0.60, -1.26, 3.30, 2.06, 1.63, 7.47, repro,
2005-04-03,0.44, -1.82, 12.19, 2.19, 1.72, 8.04, repro,
2005-04-04,-1.33, -0.02, 8.55, 2.15, 1.65, 7.85, repro,
2005-04-05,1.59, -0.81, 3.64, 2.04, 1.63, 7.57, repro,
2005-04-06,0.51, -1.50, 10.12, 2.11, 1.65, 7.84, repro,
2005-04-07,1.17, 0.40, 12.49, 2.20, 1.78, 8.04, repro,
2005-04-08,-0.84, -2.35, 7.95, 2.14, 1.67, 7.94, repro,
2005-04-09,-0.25, -2.91, 17.37, 2.13, 1.66, 7.89, repro,
2005-04-10,-0.12, -1.46, 10.31, 2.13, 1.65, 7.83, repro,
2005-04-11,-0.02, -2.05, 7.15, 2.11, 1.63, 7.73, repro,
2005-04-12,-1.19, -2.23, 9.61, 2.09, 1.62, 7.71, repro,
2005-04-13,0.44, -3.06, 7.50, 2.12, 1.64, 7.84, repro,
2005-04-14,-0.65, -1.79, 7.88, 2.19, 1.71, 7.81, repro,
2005-04-15,-0.20, -1.92, 6.96, 2.12, 1.66, 7.64, repro,
2005-04-16,0.39, -1.78, 9.38, 2.07, 1.62, 7.40, repro,
2005-04-17,-0.13, -1.12, 9.56, 2.05, 1.61, 7.35, repro,
2005-04-18,-0.72, -2.25, 8.77, 2.06, 1.63, 7.39, repro,
2005-04-19,-3.22, -0.77, 13.04, 2.08, 1.65, 7.52, repro,
2005-04-20,-0.17, -1.16, 5.64, 2.13, 1.65, 7.81, repro,
2005-04-21,-1.42, -1.52, 11.33, 2.13, 1.64, 7.80, repro,
2005-04-22,-0.13, -2.61, 8.87, 2.06, 1.62, 7.38, repro,
2005-04-23,0.17, -1.61, 7.01, 2.05, 1.61, 7.31, repro,
2005-04-24,-1.78, -3.25, 15.30, 2.10, 1.64, 7.72, repro,
2005-04-25,-0.76, -2.98, 7.45, 2.13, 1.65, 7.82, repro,
2005-04-26,-0.30, -3.42, 5.81, 2.14, 1.66, 7.84, repro,
2005-04-27,-1.05, -1.78, 5.72, 2.10, 1.64, 7.59, repro,
2005-04-28,-1.41, -1.94, 7.50, 2.08, 1.66, 7.52, repro,
2005-04-29,-0.71, -2.40, 3.41, 2.04, 1.63, 7.36, repro,
2005-04-30,-0.50, -2.18, 1.61, 2.06, 1.64, 7.48, repro,
2005-05-01,-0.65, -2.17, 10.97, 2.13, 1.64, 7.84, repro,
2005-05-02,0.20, -1.61, 9.14, 2.07, 1.62, 7.43, repro,
2005-05-03,-0.01, -2.50, 14.00, 2.08, 1.66, 7.65, repro,
2005-05-04,-0.70, -1.51, 8.90, 2.03, 1.62, 7.36, repro,
2005-05-05,0.26, -3.36, 9.14, 2.01, 1.60, 7.33, repro,
2005-05-06,1.60, -3.08, 8.82, 2.03, 1.61, 7.38, repro,
2005-05-07,-0.76, -3.06, 10.62, 2.05, 1.62, 7.42, repro,
2005-05-08,-1.11, -1.29, -0.15, 2.06, 1.62, 7.44, repro,
2005-05-09,-0.46, -1.25, 6.55, 2.06, 1.64, 7.49, repro,
2005-05-10,-1.35, -2.54, 4.68, 2.10, 1.67, 7.73, repro,
2005-05-11,0.38, -3.21, 5.41, 2.13, 1.72, 7.91, repro,
2005-05-12,-0.13, -3.30, 6.54, 2.11, 1.72, 7.89, repro,
2005-05-13,-0.40, -2.79, 5.39, 2.14, 1.75, 7.98, repro,
2005-05-14,1.17, -2.90, 2.15, 2.12, 1.75, 7.80, repro,
2005-05-15,-0.71, -3.41, 4.07, 2.10, 1.71, 7.69, repro,
2005-05-16,-2.99, -2.83, 12.95, 2.06, 1.70, 7.56, repro,
2005-05-17,-1.31, -3.49, 16.76, 2.17, 1.72, 7.75, repro,
2005-05-18,-1.47, -3.92, 13.73, 2.17, 1.70, 7.71, repro,
2005-05-19,0.67, -3.03, 10.73, 2.07, 1.69, 7.52, repro,
2005-05-20,-0.44, -3.33, 6.56, 2.08, 1.69, 7.59, repro,
2005-05-21,-0.21, -2.66, 7.60, 2.07, 1.69, 7.55, repro,
2005-05-22,-0.89, -2.70, 4.71, 2.04, 1.68, 7.43, repro,
2005-05-23,-0.96, -3.19, 9.78, 2.07, 1.68, 7.53, repro,
2005-05-24,-1.09, -2.97, 5.89, 2.08, 1.68, 7.51, repro,
2005-05-25,-0.01, -3.31, 9.95, 2.08, 1.70, 7.58, repro,
2005-05-26,-0.88, -3.24, 7.37, 2.07, 1.69, 7.52, repro,
2005-05-27,0.57, -3.41, 10.64, 2.07, 1.70, 7.53, repro,
2005-05-28,0.29, -4.18, 12.01, 2.07, 1.68, 7.46, repro,
2005-05-29,-0.89, -2.25, 15.46, 2.09, 1.69, 7.56, repro,
2005-05-30,-0.30, -3.82, 9.10, 2.11, 1.69, 7.58, repro,
2005-05-31,0.19, -3.50, 10.85, 2.09, 1.69, 7.57, repro,
2005-06-01,-0.06, -3.27, 15.45, 2.05, 1.63, 7.45, repro,
2005-06-02,-0.72, -2.31, 11.49, 2.04, 1.62, 7.42, repro,
2005-06-03,-0.49, -2.98, 12.23, 2.05, 1.62, 7.41, repro,
2005-06-04,-0.89, -2.81, 13.72, 2.07, 1.64, 7.50, repro,
2005-06-05,0.70, -2.64, 11.55, 2.10, 1.69, 7.70, repro,
2005-06-06,-0.81, -2.85, 16.04, 2.04, 1.63, 7.43, repro,
2005-06-07,-1.05, -3.43, 15.08, 2.05, 1.63, 7.45, repro,
2005-06-08,-1.87, -2.83, 9.19, 2.05, 1.63, 7.42, repro,
2005-06-09,-1.20, -2.66, 8.76, 2.07, 1.66, 7.58, repro,
2005-06-10,-1.66, -3.71, 10.31, 2.09, 1.69, 7.64, repro,
2005-06-11,-0.91, -2.79, 15.25, 2.15, 1.71, 7.73, repro,
2005-06-12,-0.51, -2.78, 8.53, 2.15, 1.71, 7.73, repro,
2005-06-13,-0.25, -2.21, 5.22, 2.15, 1.72, 7.74, repro,
2005-06-14,-1.07, -3.75, 8.16, 2.07, 1.67, 7.56, repro,
2005-06-15,-0.02, -3.35, 11.21, 2.05, 1.64, 7.43, repro,
2005-06-16,-1.42, -4.09, 8.45, 2.13, 1.64, 7.56, repro,
2005-06-17,-1.68, -4.34, 13.93, 2.16, 1.69, 7.77, repro,
2005-06-18,-0.84, -3.97, 9.46, 2.05, 1.63, 7.43, repro,
2005-06-19,-0.98, -4.07, 5.63, 2.06, 1.63, 7.41, repro,
2005-06-20,0.77, -3.50, 7.87, 2.05, 1.63, 7.42, repro,
2005-06-21,-1.07, -3.54, 8.77, 2.06, 1.62, 7.40, repro,
2005-06-22,-0.17, -3.26, 4.06, 2.06, 1.63, 7.42, repro,
2005-06-23,-0.50, -3.72, 12.33, 2.11, 1.66, 7.53, repro,
2005-06-24,0.09, -3.59, 11.80, 2.07, 1.66, 7.54, repro,
2005-06-25,-1.35, -3.83, 6.45, 2.06, 1.67, 7.60, repro,
2005-06-26,-1.17, -4.36, 4.14, 2.11, 1.65, 7.54, repro,
2005-06-27,-0.47, -3.85, 11.38, 2.06, 1.62, 7.39, repro,
2005-06-28,0.30, -4.24, 7.85, 2.06, 1.63, 7.41, repro,
2005-06-29,-0.44, -4.58, 5.23, 2.05, 1.62, 7.39, repro,
2005-06-30,-0.83, -4.25, 9.77, 2.05, 1.64, 7.41, repro,
2005-07-01,-1.46, -4.35, 10.58, 2.04, 1.63, 7.38, repro,
2005-07-02,0.15, -3.83, 15.56, 2.05, 1.61, 7.34, repro,
2005-07-03,-0.74, -3.75, 11.76, 2.06, 1.62, 7.43, repro,
2005-07-04,-0.86, -3.37, 8.49, 2.05, 1.63, 7.41, repro,
2005-07-05,-2.86, -3.94, 8.39, 2.03, 1.62, 7.39, repro,
2005-07-06,-1.79, -3.86, 12.06, 2.05, 1.62, 7.40, repro,
2005-07-07,-0.00, -3.97, 10.69, 2.12, 1.65, 7.52, repro,
2005-07-08,-0.10, -4.04, 8.67, 2.05, 1.63, 7.42, repro,
2005-07-09,-1.26, -3.41, 7.66, 2.09, 1.70, 7.60, repro,
2005-07-10,-0.63, -3.19, 6.93, 2.14, 1.70, 7.72, repro,
2005-07-11,-0.82, -3.77, 7.47, 2.05, 1.63, 7.44, repro,
2005-07-12,-0.94, -4.30, 5.46, 2.05, 1.61, 7.36, repro,
2005-07-13,-1.89, -3.58, 12.75, 2.05, 1.63, 7.46, repro,
2005-07-14,-0.53, -3.22, 16.84, 2.09, 1.67, 7.58, repro,
2005-07-15,-1.70, -3.29, 13.35, 2.03, 1.62, 7.36, repro,
2005-07-16,-0.95, -4.46, 9.69, 2.03, 1.62, 7.37, repro,
2005-07-17,-2.29, -4.40, 13.13, 2.04, 1.62, 7.37, repro,
2005-07-18,-0.29, -3.44, 12.78, 2.04, 1.62, 7.39, repro,
2005-07-19,-0.61, -4.25, 9.17, 2.04, 1.62, 7.39, repro,
2005-07-20,-1.61, -3.02, 8.84, 2.03, 1.63, 7.38, repro,
2005-07-21,-2.52, -3.20, 6.22, 2.03, 1.62, 7.35, repro,
2005-07-22,-0.03, -4.74, 14.07, 2.05, 1.62, 7.42, repro,
2005-07-23,-1.19, -3.93, 9.26, 2.06, 1.62, 7.42, repro,
2005-07-24,-0.07, -3.24, 15.54, 2.08, 1.66, 7.59, repro,
2005-07-25,-1.37, -3.56, 12.20, 2.07, 1.66, 7.54, repro,
2005-07-26,-2.24, -4.59, 13.96, 2.11, 1.72, 7.70, repro,
2005-07-27,-0.82, -4.90, 6.73, 2.12, 1.73, 7.78, repro,
2005-07-28,-1.67, -5.11, 2.47, 2.15, 1.75, 7.88, repro,
2005-07-29,-1.52, -5.12, 9.20, 2.07, 1.65, 7.58, repro,
2005-07-30,-0.27, -4.46, 12.55, 2.07, 1.66, 7.53, repro,
2005-07-31,-1.76, -4.25, 12.76, 2.07, 1.65, 7.52, repro,
2005-08-01,-1.40, -4.68, 12.00, 2.12, 1.69, 7.67, repro,
2005-08-02,-1.64, -5.19, 13.55, 2.08, 1.67, 7.65, repro,
2005-08-03,-1.46, -4.07, 14.93, 2.05, 1.63, 7.45, repro,
2005-08-04,-2.25, -4.47, 11.65, 2.05, 1.64, 7.44, repro,
2005-08-05,-1.34, -3.41, 8.38, 2.09, 1.69, 7.57, repro,
2005-08-06,-2.15, -3.58, 12.30, 2.03, 1.61, 7.35, repro,
2005-08-07,-1.48, -3.41, 7.20, 2.04, 1.63, 7.41, repro,
2005-08-08,-1.64, -3.66, 5.52, 2.05, 1.63, 7.42, repro,
2005-08-09,-1.65, -5.54, 14.55, 2.09, 1.69, 7.59, repro,
2005-08-10,-2.26, -3.64, 9.76, 2.12, 1.67, 7.58, repro,
2005-08-11,-2.46, -3.10, 9.95, 2.12, 1.73, 7.71, repro,
2005-08-12,-1.67, -3.61, 13.44, 2.12, 1.74, 7.72, repro,
2005-08-13,-0.32, -5.42, 14.41, 2.09, 1.68, 7.58, repro,
2005-08-14,-0.78, -5.20, 10.34, 2.22, 1.73, 7.97, repro,
2005-08-15,-2.47, -1.86, 8.96, 2.10, 1.70, 7.68, repro,
2005-08-16,-1.53, -2.66, 11.95, 2.10, 1.69, 7.54, repro,
2005-08-17,-0.32, -3.84, 16.94, 2.09, 1.69, 7.64, repro,
2005-08-18,-0.77, -4.40, 11.75, 2.05, 1.62, 7.42, repro,
2005-08-19,-0.33, -4.01, 12.23, 2.15, 1.76, 7.83, repro,
2005-08-20,-0.57, -3.82, 14.50, 2.10, 1.68, 7.59, repro,
2005-08-21,-0.13, -3.06, 10.52, 2.05, 1.63, 7.42, repro,
2005-08-22,-0.44, -4.34, 13.32, 2.06, 1.62, 7.43, repro,
2005-08-23,-0.57, -4.82, 15.79, 2.07, 1.63, 7.49, repro,
2005-08-24,-0.16, -4.38, 12.39, 2.05, 1.63, 7.42, repro,
2005-08-25,0.13, -4.24, 12.38, 2.10, 1.69, 7.66, repro,
2005-08-26,-1.64, -4.69, 11.86, 2.05, 1.63, 7.41, repro,
2005-08-27,0.42, -3.59, 11.91, 2.19, 1.72, 7.82, repro,
2005-08-28,-0.71, -3.03, 9.11, 2.06, 1.64, 7.45, repro,
2005-08-29,-1.27, -4.38, 17.70, 2.10, 1.69, 7.57, repro,
2005-08-30,-1.01, -4.39, 8.27, 2.08, 1.68, 7.49, repro,
2005-08-31,-1.46, -3.89, 14.58, 2.09, 1.68, 7.54, repro,
2005-09-01,-0.38, -3.92, 13.89, 2.06, 1.64, 7.43, repro,
2005-09-02,-0.97, -3.61, 16.00, 2.07, 1.64, 7.45, repro,
2005-09-03,-1.64, -4.68, 19.38, 2.04, 1.64, 7.40, repro,
2005-09-04,0.27, -3.51, 9.12, 2.09, 1.70, 7.58, repro,
2005-09-05,-1.69, -3.48, 10.58, 2.04, 1.63, 7.36, repro,
2005-09-06,-1.49, -4.15, 7.88, 2.04, 1.62, 7.34, repro,
2005-09-07,-0.79, -4.64, 13.05, 2.13, 1.65, 7.57, repro,
2005-09-08,0.01, -3.74, 11.63, 2.11, 1.64, 7.55, repro,
2005-09-09,-2.71, -4.34, 9.87, 2.11, 1.64, 7.51, repro,
2005-09-10,-1.27, -3.51, 11.05, 2.12, 1.65, 7.59, repro,
2005-09-11,-1.63, -4.04, 11.55, 2.11, 1.64, 7.54, repro,
2005-09-12,-0.85, -3.92, 11.40, 2.11, 1.63, 7.54, repro,
2005-09-13,-0.36, -4.40, 16.50, 2.21, 1.72, 7.98, repro,
2005-09-14,-0.97, -3.82, 13.59, 2.13, 1.68, 7.69, repro,
2005-09-15,-0.56, -3.90, 9.71, 2.14, 1.69, 7.76, repro,
2005-09-16,-0.83, -4.69, 5.35, 2.11, 1.68, 7.63, repro,
2005-09-17,-0.01, -4.66, 11.39, 2.04, 1.62, 7.38, repro,
2005-09-18,0.30, -4.86, 12.90, 2.06, 1.63, 7.43, repro,
2005-09-19,-1.33, -3.86, 13.84, 2.11, 1.64, 7.66, repro,
2005-09-20,-1.59, -2.09, 12.53, 2.13, 1.72, 7.67, repro,
2005-09-21,0.69, -5.31, 9.62, 2.07, 1.69, 7.64, repro,
2005-09-22,-0.59, -5.22, 6.96, 2.03, 1.62, 7.32, repro,
2005-09-23,-0.41, -3.56, 17.88, 2.04, 1.62, 7.36, repro,
2005-09-24,0.68, -3.89, 8.54, 2.07, 1.67, 7.55, repro,
2005-09-25,-0.34, -4.95, 17.34, 2.06, 1.67, 7.56, repro,
2005-09-26,-2.54, -4.65, 6.90, 2.08, 1.69, 7.64, repro,
2005-09-27,-1.81, -3.51, 8.05, 2.07, 1.68, 7.60, repro,
2005-09-28,-1.24, -4.57, 15.32, 2.12, 1.65, 7.51, repro,
2005-11-17,-0.40, -6.77, 20.82, 7.00, 5.54, 28.09, repro,
2005-11-18,-1.69, -5.53, 8.24, 2.03, 1.62, 7.41, repro,
2005-11-19,-1.20, -6.00, 6.38, 2.02, 1.62, 7.38, repro,
2005-11-20,-1.08, -4.47, 6.18, 2.07, 1.65, 7.54, repro,
2005-11-21,-1.05, -7.03, 8.22, 2.12, 1.68, 7.79, repro,
2005-11-22,-1.73, -5.65, 13.04, 2.10, 1.73, 7.78, repro,
2005-11-23,-1.85, -5.25, 10.45, 2.09, 1.70, 7.74, repro,
2005-11-24,-1.94, -5.97, 15.64, 2.04, 1.62, 7.44, repro,
2005-11-25,-1.02, -6.30, 5.91, 2.08, 1.68, 7.65, repro,
2005-11-26,1.61, -6.31, 16.85, 2.15, 1.75, 7.89, repro,
2005-11-27,-1.47, -5.83, 12.54, 2.08, 1.70, 7.70, repro,
2005-11-28,-1.37, -5.01, 8.28, 2.12, 1.71, 7.75, repro,
2005-11-29,-2.45, -5.18, 1.67, 2.07, 1.67, 7.55, repro,
2005-11-30,-0.74, -5.29, 6.62, 2.07, 1.69, 7.56, repro,
2005-12-01,-1.68, -5.78, 5.05, 2.06, 1.64, 7.44, repro,
2005-12-02,-2.93, -8.17, 10.38, 2.06, 1.65, 7.46, repro,
2005-12-03,-2.79, -5.39, 9.50, 2.06, 1.65, 7.43, repro,
2005-12-04,-1.46, -5.27, 6.38, 2.07, 1.65, 7.47, repro,
2005-12-05,-1.78, -5.95, 0.90, 2.07, 1.64, 7.44, repro,
2005-12-06,-1.74, -6.48, 1.96, 2.10, 1.68, 7.56, repro,
2005-12-07,-1.88, -6.16, 7.20, 2.07, 1.70, 7.64, repro,
2005-12-08,-2.12, -5.64, 6.84, 2.08, 1.70, 7.62, repro,
2005-12-09,-1.71, -4.93, 9.81, 2.06, 1.64, 7.42, repro,
2005-12-10,-1.19, -5.54, 6.47, 2.02, 1.60, 7.31, repro,
2005-12-11,-1.49, -6.08, 10.04, 2.04, 1.62, 7.41, repro,
2005-12-12,-1.41, -6.25, 8.93, 2.03, 1.61, 7.38, repro,
2005-12-13,-1.84, -5.51, 9.23, 2.02, 1.62, 7.37, repro,
2005-12-14,-2.14, -6.26, 1.42, 2.05, 1.65, 7.47, repro,
2005-12-15,-1.06, -6.22, 5.46, 2.13, 1.66, 7.63, repro,
2005-12-16,-1.85, -6.35, 9.08, 2.04, 1.63, 7.42, repro,
2005-12-17,-2.45, -6.84, 9.88, 2.12, 1.72, 7.68, repro,
2005-12-18,-0.98, -4.06, 7.85, 2.03, 1.69, 7.45, repro,
2005-12-19,-0.74, -6.36, -6.62, 2.13, 1.80, 7.65, repro,
2005-12-20,-1.74, -5.64, 4.29, 2.10, 1.75, 7.63, repro,
2005-12-21,-1.35, -5.35, 5.08, 2.09, 1.75, 7.53, repro,
2005-12-22,-0.10, -7.36, 6.75, 2.11, 1.78, 7.65, repro,
2005-12-23,-1.33, -6.49, 3.18, 2.15, 1.80, 7.73, repro,
2005-12-24,-2.34, -5.67, 4.29, 2.22, 1.87, 8.07, repro,
2005-12-25,-1.66, -5.79, 7.70, 2.10, 1.73, 7.64, repro,
2005-12-26,-2.61, -5.39, 14.40, 2.08, 1.67, 7.51, repro,
2005-12-27,-2.18, -6.12, 8.11, 2.18, 1.77, 7.87, repro,
2005-12-28,-1.64, -4.99, 4.27, 2.12, 1.74, 7.59, repro,
2005-12-29,-1.81, -5.76, -0.61, 2.21, 1.79, 7.93, repro,
2005-12-30,-1.99, -5.34, 10.40, 2.20, 1.82, 7.91, repro,
2005-12-31,3.42, -7.89, 9.24, 2.19, 1.83, 8.01, repro,
2006-01-01,-1.17, -7.13, 7.68, 2.17, 1.77, 7.81, repro,
2006-01-02,-0.98, -5.43, 5.82, 2.07, 1.68, 7.43, repro,
2006-01-03,-1.73, -4.40, 6.24, 2.31, 1.94, 8.22, repro,
2006-01-04,-0.67, -5.90, 2.21, 2.18, 1.87, 7.80, repro,
2006-01-05,-0.05, -5.15, -2.25, 2.16, 1.82, 7.86, repro,
2006-01-06,-1.47, -5.68, 0.07, 2.22, 1.83, 8.05, repro,
2006-01-07,-0.69, -5.44, 14.61, 2.15, 1.80, 7.75, repro,
2006-01-08,0.22, -4.33, 7.88, 2.15, 1.79, 7.70, repro,
2006-01-09,-0.98, -6.22, 4.19, 2.20, 1.82, 7.95, repro,
2006-01-10,-1.29, -5.96, 5.44, 2.22, 1.87, 8.12, repro,
2006-01-11,-0.61, -5.75, 7.27, 2.19, 1.78, 7.89, repro,
2006-01-12,-0.83, -5.73, 3.55, 2.09, 1.72, 7.50, repro,
2006-01-13,-2.56, -6.04, 5.78, 2.23, 1.89, 8.24, repro,
2006-01-14,-3.07, -5.67, -0.12, 2.16, 1.73, 7.76, repro,
2006-01-15,-1.93, -4.68, 9.72, 2.07, 1.67, 7.44, repro,
2006-01-16,-0.70, -5.93, 11.98, 2.19, 1.85, 7.82, repro,
2006-01-17,-0.51, -6.50, 12.19, 2.12, 1.70, 7.60, repro,
2006-01-18,-0.34, -5.13, 9.69, 2.05, 1.66, 7.41, repro,
2006-01-19,-0.40, -5.34, 4.34, 2.10, 1.67, 7.59, repro,
2006-01-20,-1.25, -5.93, -1.12, 2.09, 1.63, 7.53, repro,
2006-01-21,-0.63, -5.90, 6.59, 2.06, 1.62, 7.31, repro,
2006-01-22,-1.70, -6.81, 3.47, 2.06, 1.61, 7.27, repro,
2006-01-23,-1.63, -5.98, 8.75, 2.04, 1.60, 7.28, repro,
2006-01-24,-0.89, -5.29, 5.52, 2.08, 1.65, 7.45, repro,
2006-01-25,-1.55, -5.86, 5.93, 1.99, 1.57, 7.14, repro,
2006-01-26,-0.92, -6.74, 2.31, 1.99, 1.57, 7.14, repro,
2006-01-27,-1.39, -7.07, 2.34, 1.99, 1.57, 7.14, repro,
2006-01-28,-1.47, -5.92, 6.82, 1.98, 1.57, 7.14, repro,
2006-01-29,-2.30, -5.61, 2.99, 1.99, 1.58, 7.21, repro,
2006-01-30,-1.75, -5.03, 3.93, 2.00, 1.58, 7.25, repro,
2006-01-31,-0.02, -6.07, 4.83, 2.01, 1.58, 7.27, repro,
2006-02-01,-1.19, -7.38, 9.76, 2.02, 1.58, 7.29, repro,
2006-02-02,-0.38, -7.87, 6.89, 2.02, 1.57, 7.29, repro,
2006-02-03,-2.24, -7.64, 8.80, 2.02, 1.59, 7.32, repro,
2006-02-04,-1.76, -7.05, 5.86, 2.01, 1.60, 7.33, repro,
2006-02-05,-2.15, -6.90, 5.41, 2.02, 1.57, 7.28, repro,
2006-02-06,-1.67, -6.47, 3.03, 2.01, 1.58, 7.34, repro,
2006-02-07,-0.67, -7.07, 0.12, 2.00, 1.56, 7.25, repro,
2006-02-08,-0.56, -6.70, -0.31, 2.00, 1.56, 7.28, repro,
2006-02-09,-1.39, -6.76, 3.40, 2.07, 1.58, 7.49, repro,
2006-02-10,-1.38, -7.08, 5.50, 2.15, 1.60, 7.62, repro,
2006-02-11,-1.64, -6.53, -0.30, 2.02, 1.57, 7.34, repro,
2006-02-12,-1.45, -6.75, -0.32, 2.02, 1.56, 7.33, repro,
2006-02-13,-0.20, -6.46, -0.26, 2.01, 1.55, 7.29, repro,
2006-02-14,-2.00, -6.68, 11.86, 2.01, 1.56, 7.33, repro,
2006-02-15,-2.95, -6.85, 7.53, 2.01, 1.57, 7.32, repro,
2006-02-16,-3.10, -6.77, 6.62, 2.03, 1.57, 7.34, repro,
2006-02-17,-2.79, -7.43, 5.89, 2.00, 1.55, 7.23, repro,
2006-02-18,-3.44, -6.37, 3.26, 2.00, 1.56, 7.28, repro,
2006-02-19,-2.77, -7.34, 4.03, 2.00, 1.56, 7.25, repro,
2006-02-20,-1.81, -6.65, 5.90, 2.01, 1.56, 7.30, repro,
2006-02-21,-0.83, -6.48, 10.21, 2.01, 1.56, 7.31, repro,
2006-02-22,-1.50, -5.94, 11.57, 2.03, 1.57, 7.33, repro,
2006-02-23,-1.17, -6.02, 10.41, 2.00, 1.58, 7.33, repro,
2006-02-24,-1.58, -6.33, 7.81, 1.99, 1.56, 7.22, repro,
2006-02-25,-2.54, -5.73, 5.18, 2.01, 1.58, 7.32, repro,
2006-02-26,-0.75, -5.81, 16.28, 2.02, 1.58, 7.34, repro,
2006-02-27,5.26, -7.75, 24.58, 2.08, 1.64, 7.66, repro,
2006-02-28,-6.62, -3.94, 18.80, 2.10, 1.68, 7.72, repro,
2006-03-01,-1.57, -5.78, 6.23, 2.09, 1.64, 7.51, repro,
2006-03-02,-1.64, -6.37, 4.94, 2.01, 1.60, 7.31, repro,
2006-03-03,-5.62, -7.35, 17.32, 2.10, 1.62, 7.69, repro,
2006-03-04,-1.84, -6.80, 4.01, 2.01, 1.59, 7.32, repro,
2006-03-05,-1.47, -6.67, 2.90, 2.03, 1.60, 7.37, repro,
2006-03-06,-2.63, -6.59, 6.88, 2.02, 1.61, 7.45, repro,
2006-03-07,-3.48, -5.85, 10.87, 1.99, 1.59, 7.32, repro,
2006-03-08,-0.15, -5.63, 9.16, 1.98, 1.60, 7.31, repro,
2006-03-09,-0.43, -6.94, 21.34, 2.01, 1.60, 7.34, repro,
2006-03-10,-0.68, -6.90, 22.73, 2.03, 1.60, 7.39, repro,
2006-03-11,-2.10, -5.40, 11.34, 2.03, 1.59, 7.37, repro,
2006-03-12,-2.11, -7.60, 7.65, 2.02, 1.60, 7.38, repro,
2006-03-13,-1.80, -6.90, 1.90, 2.05, 1.61, 7.40, repro,
2006-03-14,-3.30, -5.67, 9.12, 2.11, 1.64, 7.55, repro,
2006-03-15,-1.85, -6.37, 5.84, 2.03, 1.60, 7.36, repro,
2006-03-16,-2.23, -6.99, 5.26, 2.12, 1.64, 7.58, repro,
2006-03-17,-2.51, -5.66, 5.26, 2.09, 1.64, 7.55, repro,
2006-03-18,-2.43, -5.89, 3.22, 2.04, 1.63, 7.40, repro,
2006-03-19,-2.20, -7.49, 6.34, 2.02, 1.64, 7.43, repro,
2006-03-20,-1.26, -7.70, 11.76, 2.09, 1.71, 7.62, repro,
2006-03-21,-2.84, -6.86, 12.43, 2.03, 1.64, 7.46, repro,
2006-03-22,-2.08, -6.83, 2.75, 2.03, 1.63, 7.44, repro,
2006-03-23,-1.65, -6.73, -0.70, 2.08, 1.64, 7.54, repro,
2006-03-24,-1.40, -8.69, 6.55, 2.09, 1.66, 7.62, repro,
2006-03-25,-3.77, -7.33, 14.16, 2.18, 1.76, 7.87, repro,
2006-03-26,-0.40, -7.62, 8.80, 2.07, 1.66, 7.57, repro,
2006-03-27,-3.04, -5.75, 12.58, 2.16, 1.70, 7.85, repro,
2006-03-28,-2.31, -6.61, 17.19, 2.01, 1.63, 7.36, repro,
2006-03-29,-2.30, -7.84, 14.39, 1.95, 1.61, 7.27, repro,